DW8397 Weather Reports


Display with metric or nautical units.
time (UTC)temp
F
wind
direction
speed
MPH
gust
MPH
rain 1hr
in
rain 24hr
in
rain mn
in
humidity
%
barometer
mb
20260904014524 63 24 0.0 0.0 0.00 0.01 0.01 87 1011.2
20260904013124 64 24 0.0 0.0 0.00 0.01 0.01 87 1011.1
20260904011525 64 25 0.0 0.0 0.00 0.01 0.01 87 1011.2
20260904010024 64 25 0.0 0.0 0.00 0.01 0.01 87 1011.0
20260904004522 65 25 0.0 0.0 0.00 0.01 0.01 87 1011.0
20260904003022 65 25 0.0 0.0 0.00 0.01 0.01 87 1010.9
20260904001522 66 25 0.0 0.0 0.00 0.01 0.01 87 1010.7
20260904000023 67 25 0.0 0.0 0.00 0.01 0.01 87 1010.3
20260903234521 68 40 0.0 0.0 0.00 0.01 0.01 86 1010.2
20260903233022 69 40 0.0 0.0 0.00 0.01 0.01 85 1010.1
20260903231523 70 40 0.0 0.0 0.00 0.01 0.01 85 1010.1
20260903230033 72 13 0.0 2.0 0.00 0.01 0.01 84 1010.3
20260903224521 73 206 0.0 0.0 0.00 0.01 0.01 83 1010.3
20260903223023 73 206 0.0 0.0 0.00 0.01 0.01 81 1010.3
20260903221517 74 244 0.0 0.0 0.00 0.01 0.01 80 1010.1
20260903220024 74 225 0.0 0.0 0.00 0.01 0.01 80 1010.4
20260903214526 74 210 0.0 3.0 0.00 0.01 0.01 80 1010.4
20260903213014 75 198 2.0 6.0 0.00 0.01 0.01 80 1010.7
20260903211526 75 206 1.0 7.0 0.00 0.01 0.01 78 1010.6
20260903210017 75 212 2.0 6.0 0.00 0.01 0.01 78 1010.4
20260903204513 75 244 0.0 6.0 0.00 0.01 0.01 79 1010.3
20260903203012 76 259 0.0 8.0 0.00 0.01 0.01 79 1010.4
20260903201517 75 229 3.0 8.0 0.00 0.01 0.01 80 1010.4
20260903200009 75 218 0.0 7.0 0.00 0.01 0.01 82 1010.7
20260903194507 75 189 0.0 8.0 0.00 0.01 0.01 81 1010.7
20260903193006 75 260 0.0 8.0 0.00 0.01 0.01 80 1010.9
20260903191503 75 192 2.0 13.0 0.00 0.01 0.01 83 1011.0
20260903190059 72 188 2.0 10.0 0.00 0.01 0.01 86 1011.0
20260903184555 70 198 2.0 13.0 0.00 0.01 0.01 87 1011.2
20260903183051 67 144 0.0 0.0 0.00 0.01 0.01 86 1011.2
20260903181548 66 145 0.0 0.0 0.00 0.01 0.01 86 1011.5
20260903180047 66 145 0.0 0.0 0.00 0.01 0.01 86 1011.7
20260903174544 66 146 0.0 0.0 0.00 0.01 0.01 86 1011.7
20260903173044 65 148 0.0 0.0 0.00 0.01 0.01 86 1011.7
20260903171540 64 147 0.0 0.0 0.00 0.01 0.01 86 1012.0
20260903170051 64 147 0.0 0.0 0.00 0.01 0.01 86 1012.0
20260903164535 64 148 0.0 0.0 0.00 0.01 0.01 86 1012.1
20260903163034 64 148 0.0 0.0 0.00 0.01 0.01 86 1012.3
20260903161535 63 148 0.0 0.0 0.00 0.01 0.01 86 1012.3
20260903160032 63 148 0.0 0.0 0.00 0.01 0.01 87 1012.4
20260903154535 63 148 0.0 0.0 0.00 0.01 0.01 87 1012.4
20260903153026 62 148 0.0 0.0 0.00 0.01 0.01 87 1012.5
20260903151524 61 148 0.0 0.0 0.00 0.01 0.01 87 1012.6
20260903150023 60 148 0.0 0.0 0.00 0.01 0.01 87 1012.8
20260903144523 60 148 0.0 0.0 0.00 0.01 0.01 87 1012.8
20260903143020 60 148 0.0 0.0 0.00 0.01 0.01 87 1012.7
20260903141531 59 148 0.0 0.0 0.00 0.01 0.01 87 1012.8
20260903140017 59 148 0.0 0.0 0.00 0.01 0.01 87 1012.9
20260903134516 58 148 0.0 0.0 0.00 0.01 0.01 87 1013.0
20260903133016 58 148 0.0 0.0 0.00 0.01 0.01 87 1012.9
20260903131515 58 148 0.0 0.0 0.00 0.01 0.01 87 1013.0
20260903130015 58 148 0.0 0.0 0.01 0.01 0.01 87 1013.0
20260903124517 58 148 0.0 0.0 0.01 0.01 0.01 88 1013.0
20260903123013 58 148 0.0 0.0 0.01 0.01 0.01 88 1013.2
20260903121512 58 148 0.0 0.0 0.01 0.01 0.01 88 1013.1
20260903120013 58 148 0.0 0.0 0.00 0.00 0.00 88 1013.2
20260903114511 58 148 0.0 0.0 0.00 0.00 0.00 88 1013.3
20260903113010 58 148 0.0 0.0 0.00 0.00 0.00 88 1013.3
20260903111513 58 148 0.0 0.0 0.00 0.00 0.00 88 1013.4
20260903110009 58 148 0.0 0.0 0.00 0.00 0.00 88 1013.4
20260903104509 58 148 0.0 0.0 0.00 0.00 0.00 88 1013.3
20260903103004 58 148 0.0 0.0 0.00 0.00 0.00 88 1013.3
20260903101502 58 148 0.0 0.0 0.00 0.00 0.00 88 1013.1
20260903100002 59 148 0.0 0.0 0.00 0.00 0.00 88 1013.2
20260903094606 59 148 0.0 0.0 0.00 0.00 0.00 88 1013.2
20260903093106 59 148 0.0 0.0 0.00 0.00 0.00 88 1013.2
20260903091557 59 148 0.0 0.0 0.00 0.00 0.00 88 1013.3
20260903090057 59 148 0.0 0.0 0.00 0.00 0.00 88 1013.4
20260903084558 59 148 0.0 0.0 0.00 0.00 0.00 88 1013.3
20260903083058 60 148 0.0 0.0 0.00 0.00 0.00 88 1013.5
20260903081612 60 148 0.0 0.0 0.00 0.00 0.00 88 1014.0
20260903080051 60 148 0.0 0.0 0.00 0.00 0.00 88 1013.9
20260903074554 60 148 0.0 0.0 0.00 0.00 0.00 88 1013.7
20260903073049 60 154 0.0 0.0 0.00 0.00 0.00 88 1013.9
20260903071553 60 153 0.0 0.0 0.00 0.00 0.00 88 1014.0
20260903070046 60 186 0.0 0.0 0.00 0.00 0.00 88 1014.1
20260903064549 60 150 0.0 5.0 0.00 0.00 0.00 88 1014.2
20260903063048 60 159 0.0 4.0 0.00 0.00 0.00 88 1014.1
20260903061540 61 202 0.0 0.0 0.00 0.00 0.00 88 1014.5
20260903060042 61 187 0.0 7.0 0.00 0.00 0.00 88 1014.7
20260903054535 61 146 0.0 0.0 0.00 0.00 0.00 88 1015.0
20260903053037 62 181 0.0 0.0 0.00 0.00 0.00 87 1015.4
20260903051532 62 170 2.0 8.0 0.00 0.00 0.00 87 1015.4
20260903050041 62 188 1.0 9.0 0.00 0.00 0.00 86 1015.5
20260903044530 62 163 1.0 5.0 0.00 0.00 0.00 85 1015.5
20260903043027 62 92 0.0 1.0 0.00 0.00 0.00 84 1015.5
20260903041526 62 217 2.0 12.0 0.00 0.00 0.00 84 1015.3
20260903040024 63 145 3.0 12.0 0.00 0.00 0.00 83 1015.4
20260903034524 63 153 2.0 6.0 0.00 0.01 0.00 82 1016.0
20260903033018 63 122 0.0 12.0 0.00 0.01 0.00 81 1016.1
20260903031516 63 226 0.0 7.0 0.00 0.01 0.00 82 1016.3
20260903030016 63 178 1.0 7.0 0.00 0.01 0.00 83 1016.6
20260903024515 63 207 0.0 7.0 0.00 0.01 0.00 83 1016.5
20260903023024 63 171 0.0 7.0 0.00 0.01 0.00 84 1016.8
20260903021518 63 138 2.0 13.0 0.00 0.01 0.00 84 1016.7
20260903020040 64 180 1.0 10.0 0.00 0.01 0.00 85 1017.0